Weather History for KBRD - December, 2013

Change the Weather History Date:

Thursday, December 5, 2013

  Actual Average Record
Temperature  
Mean Temperature 3 °F -  
Max Temperature 12 °F 28 °F 48 °F (1960)
Min Temperature -6 °F 9 °F -22 °F (1955)
Degree Days  
Heating Degree Days 62    
Moisture  
Dew Point -3 °F    
Average Humidity 72    
Maximum Humidity 79    
Minimum Humidity 66    
Precipitation  
Precipitation 0.00 in - - ()
Sea Level Pressure  
Sea Level Pressure 29.94 in    
Wind  
Wind Speed 14 mph (West)    
Max Wind Speed 20 mph    
Max Gust Speed 26 mph    
Visibility 6 miles    
Events Snow    
Averages and records for this station are not official NWS values.
T = Trace of Precipitation, MM = Missing Value Source: NWS Daily Summary

Daily Weather History Graph

Daily Weather History Graph

Search for Another Location

Airport or City:

Trip Planner

Search our weather history database for the weather conditions in past years. The results will help you decide how hot, cold, wet, or windy it might be!

Date:

Astronomy

Dec. 05, 2013 Rise Set
Actual Time 7:44 AM CST 4:30 PM CST
Civil Twilight 7:09 AM CST 5:04 PM CST
Nautical Twilight 6:31 AM CST 5:42 PM CST
Astronomical Twilight 5:55 AM CST 6:18 PM CST
Moon 10:00 AM CST 7:57 PM CST
Length of Visible Light 9h 54m
Length of Day
8h 45m
Waxing Crescent, 11% of the Moon is Illuminated
Dec 5
Waxing Crescent
Dec 9
First Quarter
Dec 17
Full
Dec 25
Last Quarter
Jan 1
New

Hourly Weather History & Observations

Time (CST) Temp. Windchill Dew Point Humidity Pressure Visibility Wind Dir Wind Speed Gust Speed Precip Events Conditions
12:25 AM 12.2 °F -1.0 °F 6.8 °F 79% 29.58 in 6.0 mi West 10.4 mph 19.6 mph 0.00 in Snow Light Snow
12:32 AM 12.2 °F -3.1 °F 6.8 °F 79% 29.59 in 5.0 mi West 13.8 mph 21.9 mph 0.00 in Snow Light Snow
12:53 AM 12.9 °F -2.2 °F 7.0 °F 77% 29.66 in 5.0 mi West 13.8 mph - 0.00 in Snow Light Snow
1:53 AM 12.0 °F -4.5 °F 5.0 °F 73% 29.70 in 6.0 mi WNW 16.1 mph 24.2 mph 0.00 in   Overcast
2:53 AM 10.0 °F -6.5 °F 3.0 °F 73% 29.74 in 3.0 mi West 15.0 mph 23.0 mph 0.00 in Snow Light Snow
3:12 AM 10.4 °F -7.2 °F 3.2 °F 73% 29.67 in 1.8 mi West 17.3 mph - 0.00 in Snow Light Snow
3:28 AM 8.6 °F -8.3 °F 3.2 °F 79% 29.68 in 1.8 mi West 15.0 mph 25.3 mph 0.00 in Snow Light Snow
3:42 AM 8.6 °F -9.5 °F 1.4 °F 73% 29.68 in 2.5 mi West 17.3 mph 25.3 mph 0.00 in Snow Light Snow
3:50 AM 8.6 °F -8.9 °F 1.4 °F 73% 29.69 in 3.0 mi West 16.1 mph 21.9 mph 0.00 in Snow Light Snow
3:53 AM 8.1 °F -9.0 °F 1.0 °F 73% 29.77 in 4.0 mi West 15.0 mph 23.0 mph 0.00 in Snow Light Snow
4:03 AM 8.6 °F -8.3 °F 1.4 °F 73% 29.70 in 4.0 mi West 15.0 mph 25.3 mph 0.00 in   Overcast
4:41 AM 6.8 °F -12.9 °F -0.4 °F 72% 29.73 in 3.0 mi West 19.6 mph 26.5 mph 0.00 in Snow Light Snow
4:53 AM 7.0 °F -10.4 °F -0.0 °F 73% 29.81 in 5.0 mi West 15.0 mph - 0.00 in   Overcast
5:29 AM 5.0 °F -15.2 °F -2.2 °F 72% 29.76 in 6.0 mi West 19.6 mph 26.5 mph 0.00 in   Haze
5:53 AM 5.0 °F -13.0 °F -2.9 °F 70% 29.85 in 7.0 mi West 15.0 mph 23.0 mph 0.00 in   Clear
6:53 AM 3.9 °F -13.7 °F -4.0 °F 70% 29.88 in 7.0 mi West 13.8 mph 24.2 mph N/A   Partly Cloudy
7:53 AM 3.0 °F -16.7 °F -4.0 °F 73% 29.92 in 6.0 mi West 17.3 mph 26.5 mph N/A   Haze
8:53 AM 3.0 °F -16.1 °F -5.1 °F 69% 29.95 in 7.0 mi West 16.1 mph 21.9 mph N/A   Clear
9:50 AM 3.2 °F -17.1 °F -4.0 °F 72% 29.90 in 6.0 mi West 18.4 mph 23.0 mph N/A   Haze
9:53 AM 3.0 °F -15.5 °F -5.1 °F 69% 29.98 in 6.0 mi West 15.0 mph - N/A   Haze
10:16 AM 3.2 °F -16.5 °F -5.8 °F 66% 29.93 in 6.0 mi West 17.3 mph 26.5 mph N/A   Haze
10:53 AM 3.9 °F -16.6 °F -5.1 °F 66% 30.02 in 6.0 mi West 19.6 mph 26.5 mph N/A Snow Blowing Snow
11:53 AM 5.0 °F -11.6 °F -4.0 °F 66% 30.05 in 8.0 mi West 12.7 mph 26.5 mph N/A   Clear
12:53 PM 5.0 °F -14.2 °F -4.0 °F 66% 30.08 in 8.0 mi West 17.3 mph 24.2 mph N/A   Partly Cloudy
1:53 PM 5.0 °F -14.7 °F -4.0 °F 66% 30.09 in 7.0 mi West 18.4 mph 25.3 mph N/A   Clear
2:53 PM 3.9 °F -13.0 °F -5.1 °F 66% 30.11 in 9.0 mi West 12.7 mph - N/A   Clear
3:53 PM 3.0 °F -15.5 °F -6.0 °F 66% 30.14 in 9.0 mi West 15.0 mph - N/A   Clear
4:53 PM 1.0 °F -16.6 °F -7.1 °F 69% 30.17 in 10.0 mi West 12.7 mph - N/A   Clear
5:53 PM -0.0 °F -18.0 °F -8.0 °F 69% 30.19 in 10.0 mi West 12.7 mph - N/A   Clear
6:53 PM -0.9 °F -18.3 °F -9.0 °F 69% 30.22 in 10.0 mi West 11.5 mph - N/A   Clear
7:53 PM -2.9 °F -18.8 °F -9.9 °F 72% 30.27 in 10.0 mi WSW 9.2 mph - N/A   Clear
8:53 PM -4.0 °F -20.2 °F -9.9 °F 76% 30.29 in 10.0 mi West 9.2 mph - N/A   Clear
9:53 PM -5.1 °F -22.5 °F -11.0 °F 76% 30.30 in 10.0 mi West 10.4 mph - N/A   Clear
10:53 PM -6.0 °F -22.6 °F -11.9 °F 75% 30.32 in 10.0 mi West 9.2 mph - N/A   Clear
11:53 PM -6.0 °F -22.6 °F -11.9 °F 75% 30.35 in 10.0 mi West 9.2 mph - N/A   Clear